Location: Wiesbaden
(50.0830°N, 8.2500°E)
Time: 03:50:51
(UTC+02:00)

ISS - Pass Details

Date: 01 April 2020
Orbit: 417 x 423 km, 51.6° (Epoch: 29 March)

Event Time Altitude Azimuth Distance (km) Brightness Sun altitude
Rises 20:56:54 0° 287° (WNW) 2,363 2.4 -9.7°
Reaches altitude 10° 20:59:01 10° 284° (WNW) 1,497 0.7 -10.0°
Maximum altitude 21:02:20 65° 202° (SSW) 463 -3.6 -10.5°
Enters shadow 21:04:47 17° 123° (ESE) 1,144 -2.2 -10.9°
